Regional Weather Roundup
Issued by NWS Sioux Falls, SD

Home | Current Version | Previous Version | Text Only | Print | Product List | Glossary Off
Versions: 1 2 3 4 5 6 7 8 9 10 11 12 13 14 15 16 17 18 19 20 21 22 23 24 25 26 27 28 29 30 31 32 33 34 35 36 37 38 39 40 41 42 43 44 45 46 47 48 49 50

000
ASUS43 KFSD 152210
RWRFSD

WEATHER ROUNDUP FOR SE SOUTH DAKOTA/SW MINNESOTA/NW IOWA
NATIONAL WEATHER SERVICE SIOUX FALLS SD
400 PM CST MON JAN 15 2018

NOTE: "FAIR" INDICATES FEW OR NO CLOUDS BELOW 12,000 FEET WITH NO
SIGNIFICANT WEATHER AND OR OBSTRUCTIONS TO VISIBILITY.


SDZ038>040-050-052>070-152300-
SOUTHEAST SOUTH DAKOTA

CITY           SKY/WX    TMP DP  RH WIND       PRES   REMARKS
BROOKINGS      CLOUDY    -6 -14  68 NW23G30     N/A  WCI -31
CHAMBERLAIN    CLOUDY     4  -7  62 NW21G28   30.69R WCI -17
HURON          PTSUNNY   -2  -9  72 N17G25    30.69R HAZE    WCI -23
MADISON        FAIR      -4 -11  71 NW23      30.56R WCI -29
MITCHELL       PTSUNNY    0  -9  65 N24G30    30.69R WCI -24
SIOUX FALLS    MOSUNNY   -2 -11  65 NW23      30.57S WCI -26
WINNER         FAIR       5  -7  57 NW28G40   30.65R WCI -18
YANKTON        MOSUNNY   -1  -9  68 NW24      30.65R WCI -25
$$

MNZ071-072-080-081-089-090-097-098-152300-
SOUTHWEST MINNESOTA

CITY           SKY/WX    TMP DP  RH WIND       PRES   REMARKS
JACKSON        CLOUDY    -6 -11  77 NW30      30.47R HAZE    WCI -34
LUVERNE        PTSUNNY   -2  -9  71 NW20G31   30.55R HAZE    WCI -25
MARSHALL       MOCLDY    -7 -14  71 N28G33    30.57R HAZE    WCI -35
MONTEVIDEO     CLOUDY    -8 -15  71 N23G31    30.60R WCI -33
PIPESTONE      PTCLDY    -6 -13  71 N20G30    30.50S WCI -29
REDWOOD FALLS  CLOUDY    -7 -14  71 NW22G31   30.55R WCI -32
WINDOM         HAZE      -6 -20  49 NW29      30.49R VSB 3/4 WCI -33
WORTHINGTON    FLURRIES  -4 -10  75 NW21G29   30.50R WCI -28
$$

IAZ001>003-012>014-020>022-031-032-NEZ013-014-SDZ071-152300-
NORTHWEST IOWA

CITY           SKY/WX    TMP DP  RH WIND       PRES   REMARKS
CHEROKEE       MOSUNNY   -1  -9  68 NW18G29   30.55S WCI -22
DENISON        MOSUNNY    0  -8  71 NW22G29   30.57R HAZE    WCI -23
ESTHERVILLE    MIX PCPN  -5 -11  75 NW26G36   30.50R WCI -31
LE MARS        MOSUNNY    0  -9  65 NW22G32   30.59S WCI -23
ORANGE CITY    MOSUNNY    0  -8  71 NW14G24   30.54R WCI -19
SHELDON        FLURRIES  -2  -9  71 NW22G31   30.51S WCI -26
SIOUX CITY     MIX PCPN   0  -8  69 NW28      30.61R WCI -25
SPENCER        MOCLDY     0 -10  63 NW20G31   30.51R WCI -22
STORM LAKE     MOSUNNY   -2  -9  71 NW21G30   30.50R WCI -25
$$

ABBREVIATIONS USED IN REMARKS
   TC - TEMPERATURE IN CELSIUS
  WCI - WIND CHILL INDEX
   HX - HEAT INDEX
  VSB - VISIBILITY





USA.gov is the U.S. government's official web portal to all federal, state and local government web resources and services.